DW1653 Weather Reports


time (UTC)temp
F
wind
direction
speed
knots
gust
knots
rain 1hr
in
rain 24hr
in
rain mn
in
humidity
%
barometer
mb
20260504214823 66 200 7.0 18.2 0.00 0.00 0.00 57 1010.5
20260504214314 66 209 8.7 18.2 0.00 0.00 0.00 57 1010.5
20260504213828 66 288 5.2 16.5 0.00 0.00 0.00 56 1010.6
20260504213319 66 217 7.8 19.1 0.00 0.00 0.00 55 1010.7
20260504212831 66 215 9.6 19.1 0.00 0.00 0.00 55 1010.6
20260504212323 66 212 6.1 18.2 0.00 0.00 0.00 56 1010.6
20260504211836 66 157 8.7 16.5 0.00 0.00 0.00 56 1010.5
20260504211329 66 194 7.0 14.8 0.00 0.00 0.00 56 1010.6
20260504210821 66 178 7.8 14.8 0.00 0.00 0.00 56 1010.5
20260504210316 66 95 6.1 19.1 0.00 0.00 0.00 57 1010.5
20260504205828 66 178 7.8 19.1 0.00 0.00 0.00 56 1010.4
20260504205342 66 124 7.0 18.2 0.00 0.00 0.00 56 1010.4
20260504204832 66 150 6.1 14.8 0.00 0.00 0.00 58 1010.4
20260504204323 66 134 7.0 14.8 0.00 0.00 0.00 58 1010.5
20260504203834 65 218 6.1 15.6 0.00 0.00 0.00 60 1010.4
20260504203327 64 138 7.0 15.6 0.00 0.00 0.00 63 1010.4
20260504202821 64 205 5.2 13.9 0.00 0.00 0.00 64 1010.5
20260504202332 64 143 5.2 10.4 0.00 0.00 0.00 63 1010.6
20260504201824 65 198 5.2 13.9 0.00 0.00 0.00 62 1010.5
20260504201319 65 168 7.0 13.9 0.00 0.00 0.00 62 1010.6
20260504200851 64 131 5.2 15.6 0.00 0.00 0.00 63 1010.6
20260504200321 64 157 7.0 15.6 0.00 0.00 0.00 63 1010.7
20260504195812 64 262 8.7 15.6 0.00 0.00 0.00 61 1010.7
20260504195328 65 165 6.1 15.6 0.00 0.00 0.00 61 1010.8
20260504194331 66 181 7.8 19.1 0.00 0.00 0.00 59 1010.8
20260504193826 67 165 7.8 12.2 0.00 0.00 0.00 56 1010.8
20260504193324 68 184 6.1 13.0 0.00 0.00 0.00 55 1010.8
20260504192839 68 169 6.1 17.4 0.00 0.00 0.00 53 1011.0
20260504191822 69 179 6.1 13.9 0.00 0.00 0.00 52 1011.0
20260504191337 69 184 4.3 15.6 0.00 0.00 0.00 52 1011.2
20260504190827 69 238 3.5 15.6 0.00 0.00 0.00 55 1011.3
20260504190318 68 159 5.2 9.6 0.00 0.00 0.00 56 1011.3
20260504185830 69 145 6.1 14.8 0.00 0.00 0.00 55 1011.4
20260504185321 70 161 6.1 13.0 0.00 0.00 0.00 54 1011.5
20260504184813 69 134 5.2 13.9 0.00 0.00 0.00 54 1011.5
20260504184331 69 139 3.5 13.9 0.00 0.00 0.00 56 1011.6
20260504183822 69 202 6.1 13.9 0.00 0.00 0.00 56 1011.7
20260504183314 68 181 5.2 11.3 0.00 0.00 0.00 56 1011.7
20260504182825 69 151 6.1 16.5 0.00 0.00 0.00 56 1011.8
20260504182337 70 171 7.0 16.5 0.00 0.00 0.00 54 1011.9
20260504181811 69 234 5.2 13.0 0.00 0.00 0.00 56 1011.8
20260504181325 69 186 6.1 12.2 0.00 0.00 0.00 54 1011.9
20260504180817 69 119 4.3 11.3 0.00 0.00 0.00 54 1012.0
20260504180314 69 183 3.5 11.3 0.00 0.00 0.00 55 1012.1
20260504175829 70 189 7.0 11.3 0.00 0.00 0.00 53 1012.1
20260504175320 70 143 7.0 11.3 0.00 0.00 0.00 51 1012.0
20260504174854 71 186 3.5 13.9 0.00 0.00 0.00 51 1012.0
20260504174344 71 196 6.1 13.9 0.00 0.00 0.00 49 1012.2
20260504173818 72 172 3.5 13.9 0.00 0.00 0.00 49 1012.3
20260504173329 72 169 6.1 13.0 0.00 0.00 0.00 44 1012.3
20260504172821 73 175 3.5 9.6 0.00 0.00 0.00 46 1012.2
20260504172355 73 148 3.5 9.6 0.00 0.00 0.00 46 1012.4
20260504171825 75 171 4.3 13.9 0.00 0.00 0.00 30 1012.5
20260504171320 75 263 3.5 9.6 0.00 0.00 0.00 29 1012.5
20260504170833 75 167 2.6 8.7 0.00 0.00 0.00 31 1012.5
20260504170322 74 261 1.7 13.0 0.00 0.00 0.00 30 1012.6
20260504160324 72 294 5.2 12.2 0.00 0.00 0.00 32 1013.3
20260504150817 69 209 3.5 14.8 0.00 0.00 0.00 37 1013.8
20260504150329 69 233 7.0 14.8 0.00 0.00 0.00 36 1013.8
20260504141319 66 228 5.2 15.6 0.00 0.00 0.00 38 1014.2
20260504140831 66 263 5.2 15.6 0.00 0.00 0.00 37 1014.3
20260504140322 65 244 6.1 11.3 0.00 0.00 0.00 39 1014.2
20260504130325 60 219 4.3 8.7 0.00 0.00 0.00 54 1014.8
20260504110333 50 247 2.6 10.4 0.00 0.00 0.00 70 1015.7
20260504100318 49 241 4.3 13.0 0.00 0.00 0.00 66 1015.4
20260504081813 49 215 3.5 7.8 0.00 0.00 0.00 58 1015.2
20260504081348 48 250 3.5 7.8 0.00 0.00 0.00 58 1015.2
20260504080823 48 231 3.5 7.0 0.00 0.00 0.00 58 1015.1
20260504080334 48 257 2.6 7.0 0.00 0.00 0.00 58 1015.1
20260504070317 48 250 4.3 7.0 0.00 0.00 0.00 57 1014.8
20260504050317 50 265 2.6 6.1 0.00 0.00 0.00 51 1014.6
20260504045829 50 261 2.6 5.2 0.00 0.00 0.00 50 1014.5
20260504045321 50 240 3.5 7.0 0.00 0.00 0.00 50 1014.4
20260504044816 50 245 3.5 7.8 0.00 0.00 0.00 50 1014.4
20260504044326 50 232 4.3 7.8 0.00 0.00 0.00 50 1014.4
20260504043821 50 254 3.5 7.8 0.00 0.00 0.00 50 1014.3
20260504043316 50 212 3.5 7.0 0.00 0.00 0.00 50 1014.3
20260504042848 50 211 2.6 6.1 0.00 0.00 0.00 50 1014.3
20260504042321 50 241 2.6 5.2 0.00 0.00 0.00 49 1014.2
20260504041816 50 294 3.5 7.8 0.00 0.00 0.00 49 1014.1
20260504041327 50 242 2.6 7.8 0.00 0.00 0.00 49 1014.2
20260504040842 50 269 3.5 8.7 0.00 0.00 0.00 49 1014.2
20260504040312 51 254 4.3 6.1 0.00 0.00 0.00 49 1014.1
20260504035826 51 226 2.6 6.1 0.00 0.00 0.00 49 1014.0
20260504035320 51 255 2.6 6.1 0.00 0.00 0.00 49 1014.1
20260504034815 51 254 2.6 6.1 0.00 0.00 0.00 49 1014.0
20260504034326 51 254 2.6 4.3 0.00 0.00 0.00 48 1013.9
20260504033822 51 259 2.6 5.2 0.00 0.00 0.00 48 1013.9
20260504033334 51 223 2.6 6.1 0.00 0.00 0.00 48 1013.8
20260504032826 51 239 2.6 7.0 0.00 0.00 0.00 48 1013.9
20260504032337 51 230 3.5 7.0 0.00 0.00 0.00 48 1013.9
20260504031831 51 232 1.7 6.1 0.00 0.00 0.00 47 1013.9
20260504031322 51 242 2.6 7.0 0.00 0.00 0.00 47 1013.8
20260504030854 51 249 3.5 7.0 0.00 0.00 0.00 47 1013.9
20260504030324 51 245 1.7 6.1 0.00 0.00 0.00 47 1013.9
20260504025816 52 213 1.7 4.3 0.00 0.00 0.00 47 1013.8
20260504025326 52 234 1.7 4.3 0.00 0.00 0.00 47 1013.8
20260504024822 52 221 1.7 4.3 0.00 0.00 0.00 47 1013.8
20260504024333 52 264 2.6 4.3 0.00 0.00 0.00 47 1013.7
20260504023825 52 251 1.7 4.3 0.00 0.00 0.00 46 1013.8
20260504023317 52 265 1.7 4.3 0.00 0.00 0.00 46 1013.8
20260504022828 52 252 1.7 3.5 0.00 0.00 0.00 46 1013.8
20260504022319 52 287 1.7 4.3 0.00 0.00 0.00 46 1013.8
20260504021833 52 234 1.7 6.1 0.00 0.00 0.00 46 1013.7
20260504021324 52 265 2.6 5.2 0.00 0.00 0.00 46 1013.8
20260504020823 52 254 2.6 4.3 0.00 0.00 0.00 46 1013.8
20260504020314 52 229 1.7 5.2 0.00 0.00 0.00 45 1013.8
20260504015829 53 257 2.6 5.2 0.00 0.00 0.00 45 1013.8
20260504015320 53 246 1.7 4.3 0.00 0.00 0.00 45 1013.8
20260504014851 53 232 1.7 2.6 0.00 0.00 0.00 45 1013.8
20260504014325 53 234 1.7 3.5 0.00 0.00 0.00 45 1013.7
20260504013820 53 204 1.7 3.5 0.00 0.00 0.00 44 1013.6
20260504013331 53 227 1.7 2.6 0.00 0.00 0.00 43 1013.6
20260504012826 54 226 0.9 2.6 0.00 0.00 0.00 43 1013.5
20260504012317 54 234 0.9 2.6 0.00 0.00 0.00 43 1013.4
20260504011848 54 246 0.9 3.5 0.00 0.00 0.00 43 1013.4
20260504011318 54 232 0.9 3.5 0.00 0.00 0.00 42 1013.3
20260504010833 55 180 0.9 2.6 0.00 0.00 0.00 42 1013.2
20260504010324 55 222 0.9 2.6 0.00 0.00 0.00 41 1013.1
20260504005819 55 225 0.9 2.6 0.00 0.00 0.00 41 1013.1
20260504005350 55 229 0.9 1.7 0.00 0.00 0.00 40 1013.0
20260504004821 55 229 0.9 1.7 0.00 0.00 0.00 39 1013.0
20260504004332 56 229 0.9 1.7 0.00 0.00 0.00 39 1012.9
20260504003828 56 229 0.9 1.7 0.00 0.00 0.00 39 1012.8
20260504003339 56 229 0.9 1.7 0.00 0.00 0.00 38 1012.8
20260504002829 56 234 0.9 2.6 0.00 0.00 0.00 37 1012.7
20260504002321 56 236 0.9 3.5 0.00 0.00 0.00 36 1012.7
20260504001832 57 215 1.7 5.2 0.00 0.00 0.00 36 1012.6
20260504001345 57 232 0.9 5.2 0.00 0.00 0.00 35 1012.5
20260504000815 57 240 0.9 4.3 0.00 0.00 0.00 34 1012.5
20260504000346 58 266 1.7 4.3 0.00 0.00 0.00 34 1012.4
20260503235816 58 240 2.6 6.1 0.00 0.00 0.00 34 1012.3
20260503235348 58 276 2.6 5.2 0.00 0.00 0.00 33 1012.2
20260503234818 58 211 2.6 7.0 0.00 0.00 0.00 33 1012.2
20260503234314 59 239 3.5 7.0 0.00 0.00 0.00 32 1012.1
20260503233828 59 274 3.5 7.8 0.00 0.00 0.00 32 1012.1
20260503233320 59 253 6.1 9.6 0.00 0.00 0.00 31 1012.0
20260503232815 59 261 5.2 8.7 0.00 0.00 0.00 31 1012.0
20260503232326 59 281 4.3 7.0 0.00 0.00 0.00 31 1012.1
20260503231817 60 272 2.6 7.0 0.00 0.00 0.00 31 1012.2
20260503231328 60 261 2.6 7.0 0.00 0.00 0.00 30 1012.1
20260503230840 60 302 3.5 7.0 0.00 0.00 0.00 31 1012.1
20260503230315 60 309 3.5 8.7 0.00 0.00 0.00 30 1012.0
20260503225826 60 295 3.5 10.4 0.00 0.00 0.00 30 1011.9
20260503225318 60 275 2.6 9.6 0.00 0.00 0.00 30 1011.8
20260503224829 61 285 4.3 12.2 0.00 0.00 0.00 30 1011.8
20260503224321 61 5 1.7 12.2 0.00 0.00 0.00 30 1011.8
20260503223833 61 313 3.5 13.9 0.00 0.00 0.00 29 1011.8
20260503223326 61 301 5.2 13.9 0.00 0.00 0.00 28 1011.8
20260503222818 61 294 3.5 13.9 0.00 0.00 0.00 28 1011.8
20260503222351 62 314 3.5 9.6 0.00 0.00 0.00 29 1011.7
20260503221825 61 288 4.3 9.6 0.00 0.00 0.00 29 1011.7
20260503221324 61 345 4.3 9.6 0.00 0.00 0.00 29 1011.6
20260503220815 61 307 4.3 16.5 0.00 0.00 0.00 30 1011.7
20260503220327 61 259 2.6 16.5 0.00 0.00 0.00 29 1011.8
20260503215839 61 271 6.1 15.6 0.00 0.00 0.00 28 1011.7
20260503215333 62 277 7.0 16.5 0.00 0.00 0.00 28 1011.7